Terminal Aerodrome Forecast
Issued by NWS Burlington, VT

Home | Current Version | Previous Version | Text Only | Print | Product List | Glossary On
Versions: 1 2 3 4 5 6 7 8 9 10 11 12 13 14 15 16 17
000
FTUS41 KBTV 311720
TAFBTV
TAF
KBTV 311720Z 3118/0118 28010G17KT P6SM SCT050
     FM010000 20005KT P6SM SCT060
     FM010800 18006KT P6SM VCSH BKN050
     FM011300 22010KT P6SM BKN050=

USA.gov is the U.S. government's official web portal to all federal, state and local government web resources and services.